EUTELSAT 117 WEST B

Last updated on Thu Aug 13 2026 00:03:00 GMT+0000 (Coordinated Universal Time)

1 41589U 16038B 26224.54886803 -.00000029 00000+0 00000+0 0 9993 2 41589 0.0157 244.4668 0000440 201.6195 315.5002 1.00273234 37220
UTC large
Height (km)
Speed (km/s)
/
Latitude / Longitude
Inclination (degrees)
Orbital Period (minutes)
Azimuth
Elevation
Range (km)
Doppler Factor

Next 0 passes for location: London (51.5072 / 0.1276)

No passes found over London.
EUTELSAT 117 WEST B